Glendale Luke AFB, AZ

11:45 PM MST on December 06, 2019 (GMT -0700)
Luke Air Force Base

Weather History for KLUF - August, 2019

Change the Weather History Date:

Sunday, August 18, 2019

  Actual Average Record
Temperature  
Mean Temperature 92 °F -  
Max Temperature 104 °F 104 °F 113 °F (1948)
Min Temperature 79 °F 72 °F 58 °F (1938)
Cooling Degree Days 26    
Growing Degree Days 42 (Base 50)    
Moisture  
Dew Point 43 °F    
Average Humidity 18    
Maximum Humidity 35    
Minimum Humidity 10    
Precipitation  
Precipitation 0.00 in - - ()
Sea Level Pressure  
Sea Level Pressure 29.76 in    
Wind  
Wind Speed 5 mph (SSE)    
Max Wind Speed 9 mph    
Max Gust Speed -    
Visibility 10 miles    
Events      
Averages and records for this station are not official NWS values.
T = Trace of Precipitation, MM = Missing Value Source: NWS Daily Summary

Daily Weather History Graph

Daily Weather History Graph

Search for Another Location

Airport or City:

Astronomy

Aug. 18, 2019 Rise Set
Actual Time 5:53 AM MST 7:12 PM MST
Civil Twilight 5:27 AM MST 7:38 PM MST
Nautical Twilight 4:56 AM MST 8:09 PM MST
Astronomical Twilight 4:24 AM MST 8:41 PM MST
Moon 9:16 PM MST (8/18) 8:35 AM MST (8/18)
Length of Visible Light 14h 10m
Length of Day
13h 18m
Waning Gibbous, 91% of the Moon is Illuminated
Aug 18
Waning Gibbous
Aug 23
Last Quarter
Aug 30
New
Sep 5
First Quarter
Sep 13
Full

Hourly Weather History & Observations

Time (MST) Temp. Dew Point Humidity Pressure Visibility Wind Dir Wind Speed Gust Speed Precip Events Conditions
12:58 AM 89.6 °F 40.5 °F 18% 29.70 in 10.0 mi WSW 8.1 mph - N/A   Clear
1:58 AM 88.5 °F 46.0 °F 23% 29.70 in 10.0 mi SW 8.1 mph - N/A   Clear
2:58 AM 84.9 °F 47.1 °F 27% 29.73 in 10.0 mi East 3.5 mph - N/A   Clear
3:58 AM 88.0 °F 45.5 °F 23% 29.72 in 10.0 mi Calm Calm - N/A   Clear
4:58 AM 83.5 °F 45.0 °F 26% 29.75 in 10.0 mi SSE 4.6 mph - N/A   Clear
5:58 AM 79.5 °F 49.5 °F 35% 29.76 in 10.0 mi Calm Calm - N/A   Clear
6:58 AM 81.0 °F 48.4 °F 32% 29.79 in 10.0 mi North 4.6 mph - N/A   Clear
7:58 AM 87.1 °F 48.0 °F 26% 29.80 in 10.0 mi North 5.8 mph - N/A   Clear
8:58 AM 92.1 °F 45.3 °F 20% 29.81 in 9.0 mi NE 3.5 mph - N/A   Clear
9:58 AM 95.7 °F 40.6 °F 15% 29.83 in 10.0 mi SE 6.9 mph - N/A   Clear
10:58 AM 97.3 °F 41.9 °F 15% 29.83 in 10.0 mi SSW 8.1 mph - N/A   Partly Cloudy
11:58 AM 98.4 °F 41.0 °F 14% 29.81 in 10.0 mi Calm Calm - N/A   Partly Cloudy
12:56 PM 100.4 °F 39.2 °F 12% 29.80 in 10.0 mi South 5.8 mph - N/A   Light Drizzle
12:58 PM 100.8 °F 36.7 °F 11% 29.80 in 10.0 mi South 6.9 mph - 0.00 in   Light Drizzle
1:06 PM 100.4 °F 37.4 °F 11% 29.80 in 10.0 mi Calm Calm - N/A   Scattered Clouds
1:58 PM 101.3 °F 37.0 °F 11% 29.78 in 10.0 mi SSW 5.8 mph - 0.00 in   Mostly Cloudy
2:58 PM 103.5 °F 36.1 °F 10% 29.75 in 10.0 mi SE 5.8 mph - N/A   Scattered Clouds
3:58 PM 102.7 °F 38.1 °F 11% 29.73 in 10.0 mi SSE 4.6 mph - N/A   Partly Cloudy
4:58 PM 104.9 °F 37.2 °F 10% 29.71 in 10.0 mi South 9.2 mph - N/A   Partly Cloudy
5:58 PM 103.8 °F 38.8 °F 11% 29.71 in 10.0 mi South 3.5 mph - N/A   Clear
6:58 PM 102.6 °F 37.9 °F 11% 29.71 in 10.0 mi SE 5.8 mph - N/A   Clear
7:58 PM 98.6 °F 43.0 °F 15% 29.72 in 10.0 mi East 4.6 mph - N/A   Clear
8:58 PM 94.8 °F 44.6 °F 18% 29.74 in 10.0 mi East 3.5 mph - N/A   Clear
9:58 PM 91.4 °F 45.9 °F 21% 29.75 in 10.0 mi West 4.6 mph - N/A   Clear
10:58 PM 87.4 °F 50.4 °F 28% 29.75 in 10.0 mi NNW 4.6 mph - N/A   Clear
11:58 PM 86.9 °F 46.8 °F 25% 29.75 in 10.0 mi Calm Calm - N/A   Clear